Location: Tr�vern
(48.0333°N, 4.6000°W)
Time: 08:18:59
(UTC+00:00)

CZ-2C R/B - Pass Details

Date: 14 July 2020
Orbit: 503 x 566 km, 97.7° (Epoch: 04 August)

Event Time Altitude Azimuth Distance (km) Brightness Sun altitude
Rises 03:45:33 0° 14° (NNE) 2,778 7.5 -7.1°
Reaches altitude 10° 03:47:43 10° 16° (NNE) 1,877 6.6 -6.8°
Maximum altitude 03:51:48 78° 102° (ESE) 585 3.0 -6.3°
Drops below altitude 10° 03:55:49 10° 190° (S) 1,851 5.0 -5.8°
Enters shadow 03:57:42 - 191° (SSW) 2,638 5.8 -5.6°
